Regional Weather Roundup
Issued by NWS

Home | Current Version | Previous Version | Graphics & Text | Print | Product List | Glossary On
Versions: 1 2 3 4 5 6 7 8 9 10 11 12 13 14 15 16 17 18 19 20 21 22 23 24 25 26 27 28 29 30 31 32 33 34 35 36 37 38 39 40 41 42 43 44 45 46 47 48 49 50
453
ASUS43 KLMK 241102
RWRKY
KENTUCKY REGIONAL WEATHER ROUNDUP
NATIONAL WEATHER SERVICE LOUISVILLE KY
700 AM EDT MON APR 24 2017

NOTE "FAIR" INDICATES FEW OR NO CLOUDS BELOW 12,000 FEET
WITH NO SIGNIFICANT WEATHER AND/OR OBSTRUCTIONS TO VISIBILITY.

KYZ001>023-026-027-061>063-070>075-241200-
WESTERN AND SOUTH CENTRAL KENTUCKY

CITY           SKY/WX    TMP DP  RH WIND       PRES   REMARKS
PADUCAH        CLEAR     49  39  68 N5        29.88R
HENDERSON      CLEAR     51  39  63 NE7       29.90R
OWENSBORO      CLEAR     53  39  59 N8        29.87S
HOPKINSVILLE   CLEAR     54  49  83 NE10      29.84S
BOWLING GREEN  CLOUDY    54  51  90 N5        29.85S
GLASGOW        NOT AVBL
$$

KYZ024-025-028>034-038-045-046-053-241200-
NORTH CENTRAL KENTUCKY

CITY           SKY/WX    TMP DP  RH WIND       PRES   REMARKS
LOUISVILLE/SDF PTCLDY    53  41  63 N6        29.87S
LOUISVILLE/LOU PTCLDY    53  41  63 VRB3      29.87S
FORT KNOX      PTCLDY    50  44  79 N7        29.85R
$$

KYZ035>037-039>044-047>052-055>060-089>105-241200-
NORTHEAST KENTUCKY

CITY           SKY/WX    TMP DP  RH WIND       PRES   REMARKS
LEXINGTON      CLOUDY    56  43  61 NE9       29.87R
COVINGTON      PTCLDY    50  37  61 NE9       29.92R
FRANKFORT      CLOUDY    57  43  59 N9        29.86S
$$

KYZ054-064>069-076>088-106>120-241200-
SOUTHEAST KENTUCKY

CITY           SKY/WX    TMP DP  RH WIND       PRES   REMARKS
JACKSON        CLEAR     48  47  96 VRB3      29.86R
LONDON         CLOUDY    52  48  86 VRB3      29.85R
SOMERSET       CLOUDY    50  50 100 E6        29.86R
MIDDLESBORO    CLOUDY    52  52 100 CALM      29.84S
MONTICELLO     CLOUDY    53  51  93 NW3       29.86R
$$





USA.gov is the U.S. government's official web portal to all federal, state and local government web resources and services.